Zurück zum Katalog

FENGYUN 1C DEB

AktivPO
NORAD 30828·DEBRIS·🇨🇳 China

Gestartet May 10, 1999 von Taiyuan Satellite Launch Center

Loading…

Nächste Überflüge (nächste 24 Stunden)

TLE

AktuellSource: Space-Track

Epoche: Sep 14, 2026, 14:56 UTC

1 30828U 99025AVN 26257.62290596  .00004862  00000-0  44249-3 0  9993
2 30828  98.3956  21.8963 0191609  14.6249 346.0399 14.82719262 27234

Verfolge FENGYUN 1C DEB in Echtzeit mit AllMySat

Download on the App Store